,,PA_Meas_PMT16A,,PR_Meas_QMR101_102,,RH_Meas_QMH101,,SR_Meas_QMS101,,TA_Meas_QMH101,,GenWind,,GenWind,
time,status,PA,status,PR,status,RH,status,SR,status,TA,status,DirAvg,status,SpdAvg,
2010-08-13, 00:00:04,VALID,916.986,VALID,0,VALID,94.9878,VALID,0,VALID,21.7103,VALID,359,VALID,0.780469,
2010-08-13, 00:01:04,VALID,917,VALID,0,VALID,95.0945,VALID,0,VALID,21.6696,VALID,18,VALID,1.24648,
2010-08-13, 00:02:04,VALID,916.992,VALID,0,VALID,95.1936,VALID,0,VALID,21.6501,VALID,18,VALID,1.36875,
2010-08-13, 00:03:04,VALID,916.997,VALID,0,VALID,95.3384,VALID,0,VALID,21.6908,VALID,19,VALID,1.22383,
2010-08-13, 00:04:04,VALID,916.991,VALID,0,VALID,95.4604,VALID,0,VALID,21.6891,VALID,45,VALID,1.0082,
2010-08-13, 00:05:04,VALID,916.993,VALID,0,VALID,95.4757,VALID,0,VALID,21.6908,VALID,45,VALID,1.18242,
2010-08-13, 00:06:04,VALID,917.005,VALID,0,VALID,95.4223,VALID,0,VALID,21.6696,VALID,44,VALID,0.886328,
2010-08-13, 00:07:04,VALID,916.988,VALID,0,VALID,95.3842,VALID,0,VALID,21.6306,VALID,11,VALID,1.90859,
2010-08-13, 00:08:04,VALID,916.995,VALID,0,VALID,95.4071,VALID,0,VALID,21.6518,VALID,12,VALID,1.09375,
2010-08-13, 00:09:04,VALID,916.977,VALID,0,VALID,95.4147,VALID,0,VALID,21.6713,VALID,19,VALID,1.03984,
2010-08-13, 00:10:04,VALID,916.971,VALID,0,VALID,95.4147,VALID,0,VALID,21.6713,VALID,55,VALID,0.924219,
2010-08-13, 00:11:04,VALID,916.913,VALID,0,VALID,95.3689,VALID,0,VALID,21.6501,VALID,42,VALID,0.961719,
2010-08-13, 00:12:04,VALID,916.919,VALID,0,VALID,95.3461,VALID,0,VALID,21.6713,VALID,42,VALID,0.683203,
2010-08-13, 00:13:04,VALID,916.93,VALID,0,VALID,95.2851,VALID,0,VALID,21.6924,VALID,42,VALID,0.465625,
2010-08-13, 00:14:04,VALID,916.91,VALID,0,VALID,95.2546,VALID,0,VALID,21.6908,VALID,42,VALID,0.85625,
2010-08-13, 00:15:04,VALID,916.918,VALID,0,VALID,95.1479,VALID,0,VALID,21.6713,VALID,42,VALID,0.730078,
2010-08-13, 00:16:04,VALID,916.898,VALID,0,VALID,95.1326,VALID,0,VALID,21.6713,VALID,42,VALID,0.567187,
2010-08-13, 00:17:04,VALID,916.915,VALID,0,VALID,95.0564,VALID,0,VALID,21.6908,VALID,37,VALID,0.894531,
2010-08-13, 00:18:04,VALID,916.914,VALID,0,VALID,94.9039,VALID,0,VALID,21.6518,VALID,341,VALID,0.649219,
2010-08-13, 00:19:04,VALID,916.905,VALID,0,VALID,94.9496,VALID,0,VALID,21.6518,VALID,341,VALID,0.838672,
2010-08-13, 00:20:04,VALID,916.894,VALID,0,VALID,94.9344,VALID,0,VALID,21.6518,VALID,341,VALID,0.749219,
2010-08-13, 00:21:04,VALID,916.883,VALID,0,VALID,94.8734,VALID,0,VALID,21.6518,VALID,341,VALID,0.481641,
2010-08-13, 00:22:04,VALID,916.878,VALID,0,VALID,94.7896,VALID,0,VALID,21.6128,VALID,341,VALID,0.614453,
2010-08-13, 00:23:04,VALID,916.858,VALID,0,VALID,94.7896,VALID,0,VALID,21.6518,VALID,341,VALID,0.498437,
2010-08-13, 00:24:04,VALID,916.839,VALID,0,VALID,94.7514,VALID,0,VALID,21.6518,VALID,341,VALID,0.366797,
2010-08-13, 00:25:04,VALID,916.822,VALID,0,VALID,94.7362,VALID,0,VALID,21.6518,VALID,341,VALID,0.280859,
2010-08-13, 00:26:04,VALID,916.815,VALID,0,VALID,94.5609,VALID,0,VALID,21.6323,VALID,341,VALID,0.401563,
2010-08-13, 00:27:04,VALID,916.8,VALID,0,VALID,94.5151,VALID,0,VALID,21.6323,VALID,341,VALID,0.496484,
2010-08-13, 00:28:04,VALID,916.78,VALID,0,VALID,94.355,VALID,0,VALID,21.6323,VALID,341,VALID,0.453125,
2010-08-13, 00:29:04,VALID,916.759,VALID,0,VALID,94.0882,VALID,0,VALID,21.6111,VALID,341,VALID,0.554297,
2010-08-13, 00:30:04,VALID,916.742,VALID,0,VALID,93.9891,VALID,0,VALID,21.6518,VALID,341,VALID,0.101172,
2010-08-13, 00:31:04,VALID,916.752,VALID,0,VALID,94.0577,VALID,0,VALID,21.6713,VALID,341,VALID,0.220703,
2010-08-13, 00:32:04,VALID,916.741,VALID,0,VALID,94.0348,VALID,0,VALID,21.6908,VALID,341,VALID,0,
2010-08-13, 00:33:04,VALID,916.76,VALID,0,VALID,93.9281,VALID,0,VALID,21.6908,VALID,341,VALID,0.179297,
2010-08-13, 00:34:04,VALID,916.755,VALID,0,VALID,94.1568,VALID,0,VALID,21.7103,VALID,341,VALID,0.211719,
2010-08-13, 00:35:04,VALID,916.759,VALID,0,VALID,94.2254,VALID,0,VALID,21.7298,VALID,341,VALID,0.0730469,
2010-08-13, 00:36:04,VALID,916.776,VALID,0,VALID,94.3321,VALID,0,VALID,21.7298,VALID,341,VALID,0.361719,
2010-08-13, 00:37:04,VALID,916.813,VALID,0,VALID,94.3703,VALID,0,VALID,21.7103,VALID,341,VALID,0.395703,
2010-08-13, 00:38:04,VALID,916.804,VALID,0,VALID,94.355,VALID,0,VALID,21.6518,VALID,341,VALID,0.515625,
2010-08-13, 00:39:04,VALID,916.828,VALID,0,VALID,94.5761,VALID,0,VALID,21.6518,VALID,341,VALID,0.464844,
2010-08-13, 00:40:04,VALID,916.83,VALID,0,VALID,94.6523,VALID,0,VALID,21.6128,VALID,341,VALID,0.4625,
2010-08-13, 00:41:04,VALID,916.797,VALID,0,VALID,94.82,VALID,0,VALID,21.5737,VALID,341,VALID,0.341406,
2010-08-13, 00:42:04,VALID,916.797,VALID,0,VALID,94.9496,VALID,0,VALID,21.5737,VALID,341,VALID,0.769531,
2010-08-13, 00:43:04,VALID,916.777,VALID,0,VALID,94.9115,VALID,0,VALID,21.5542,VALID,341,VALID,0.64375,
2010-08-13, 00:44:04,VALID,916.748,VALID,0,VALID,94.8963,VALID,0,VALID,21.5136,VALID,341,VALID,0.634375,
2010-08-13, 00:45:04,VALID,916.741,VALID,0,VALID,94.8429,VALID,0,VALID,21.5152,VALID,341,VALID,0.605078,
2010-08-13, 00:46:04,VALID,916.72,VALID,0,VALID,94.7286,VALID,0,VALID,21.4957,VALID,341,VALID,0.658594,
2010-08-13, 00:47:04,VALID,916.699,VALID,0,VALID,94.6676,VALID,0,VALID,21.4762,VALID,341,VALID,0.604297,
2010-08-13, 00:48:04,VALID,916.708,VALID,0,VALID,94.6981,VALID,0,VALID,21.4957,VALID,341,VALID,0.495703,
2010-08-13, 00:49:04,VALID,916.663,VALID,0,VALID,94.5532,VALID,0,VALID,21.4746,VALID,341,VALID,0.851172,
2010-08-13, 00:50:04,VALID,916.648,VALID,0,VALID,94.4313,VALID,0,VALID,21.4567,VALID,341,VALID,0.505469,
2010-08-13, 00:51:04,VALID,916.598,VALID,0,VALID,94.4617,VALID,0,VALID,21.4567,VALID,341,VALID,0.406641,
2010-08-13, 00:52:04,VALID,916.607,VALID,0,VALID,94.416,VALID,0,VALID,21.4567,VALID,341,VALID,0.332422,
2010-08-13, 00:53:04,VALID,916.563,VALID,0,VALID,94.4008,VALID,0,VALID,21.4762,VALID,341,VALID,0.0945313,
2010-08-13, 00:54:04,VALID,916.522,VALID,0,VALID,94.3169,VALID,0,VALID,21.4567,VALID,341,VALID,0.259766,
2010-08-13, 00:55:04,VALID,916.512,VALID,0,VALID,94.1492,VALID,0,VALID,21.4567,VALID,341,VALID,0.0179687,
2010-08-13, 00:56:04,VALID,916.468,VALID,0,VALID,94.1416,VALID,0,VALID,21.4762,VALID,341,VALID,0,
2010-08-13, 00:57:04,VALID,916.474,VALID,0,VALID,94.0348,VALID,0,VALID,21.4746,VALID,341,VALID,0,
2010-08-13, 00:58:04,VALID,916.449,VALID,0,VALID,93.9357,VALID,0,VALID,21.4941,VALID,341,VALID,0,
2010-08-13, 00:59:04,VALID,916.421,VALID,0,VALID,93.7375,VALID,0,VALID,21.4762,VALID,341,VALID,0.0148437,
2010-08-13, 01:00:04,VALID,916.387,VALID,0,VALID,93.5469,VALID,0,VALID,21.4957,VALID,341,VALID,0.0832031,
2010-08-13, 01:01:04,VALID,916.345,VALID,0,VALID,93.4173,VALID,0,VALID,21.4957,VALID,341,VALID,0.124219,
2010-08-13, 01:02:04,VALID,916.334,VALID,0,VALID,93.7299,VALID,0,VALID,21.5347,VALID,341,VALID,0.248437,
2010-08-13, 01:03:04,VALID,916.281,VALID,0,VALID,93.8747,VALID,0,VALID,21.5542,VALID,341,VALID,0.401953,
2010-08-13, 01:04:04,VALID,916.31,VALID,0,VALID,93.9205,VALID,0,VALID,21.5331,VALID,341,VALID,0.364844,
2010-08-13, 01:05:04,VALID,916.283,VALID,0,VALID,93.951,VALID,0,VALID,21.5347,VALID,341,VALID,0.333984,
2010-08-13, 01:06:04,VALID,916.259,VALID,0,VALID,93.9586,VALID,0,VALID,21.5347,VALID,341,VALID,0.349609,
2010-08-13, 01:07:04,VALID,916.252,VALID,0,VALID,94.1492,VALID,0,VALID,21.5152,VALID,341,VALID,0.433984,
2010-08-13, 01:08:04,VALID,916.224,VALID,0,VALID,94.073,VALID,0,VALID,21.4567,VALID,341,VALID,0.599219,
2010-08-13, 01:09:04,VALID,916.239,VALID,0,VALID,94.1339,VALID,0,VALID,21.3965,VALID,341,VALID,0.699609,
2010-08-13, 01:10:04,VALID,916.234,VALID,0,VALID,94.1339,VALID,0,VALID,21.3981,VALID,341,VALID,0.794531,
2010-08-13, 01:11:04,VALID,916.236,VALID,0,VALID,94.1721,VALID,0,VALID,21.338,VALID,341,VALID,0.769531,
2010-08-13, 01:12:04,VALID,916.242,VALID,0,VALID,94.1873,VALID,0,VALID,21.3201,VALID,341,VALID,0.525,
2010-08-13, 01:13:04,VALID,916.286,VALID,0,VALID,94.1644,VALID,0,VALID,21.3006,VALID,341,VALID,0.460938,
2010-08-13, 01:14:04,VALID,916.276,VALID,0,VALID,94.1949,VALID,0,VALID,21.3006,VALID,341,VALID,0.234375,
2010-08-13, 01:15:04,VALID,916.266,VALID,0,VALID,94.1492,VALID,0.107441,VALID,21.3201,VALID,341,VALID,0.319922,
2010-08-13, 01:16:04,VALID,916.261,VALID,0,VALID,94.0882,VALID,0,VALID,21.3006,VALID,341,VALID,0.387891,
2010-08-13, 01:17:04,VALID,916.239,VALID,0,VALID,94.0501,VALID,0,VALID,21.3006,VALID,341,VALID,0.410547,
2010-08-13, 01:18:04,VALID,916.238,VALID,0,VALID,94.073,VALID,0,VALID,21.3006,VALID,341,VALID,0.274219,
2010-08-13, 01:19:04,VALID,916.238,VALID,0,VALID,94.2178,VALID,0,VALID,21.299,VALID,341,VALID,0.125391,
2010-08-13, 01:20:04,VALID,916.227,VALID,0,VALID,94.2864,VALID,0,VALID,21.3006,VALID,341,VALID,0.158984,
2010-08-13, 01:21:04,VALID,916.215,VALID,0,VALID,94.416,VALID,0,VALID,21.3201,VALID,341,VALID,0.395312,
2010-08-13, 01:22:04,VALID,916.196,VALID,0,VALID,94.6066,VALID,0,VALID,21.3006,VALID,341,VALID,0.519531,
2010-08-13, 01:23:04,VALID,916.201,VALID,0,VALID,94.7209,VALID,0,VALID,21.3006,VALID,341,VALID,0.60625,
2010-08-13, 01:24:04,VALID,916.147,VALID,0,VALID,94.8124,VALID,0,VALID,21.2616,VALID,341,VALID,0.782422,
2010-08-13, 01:25:04,VALID,916.139,VALID,0,VALID,94.9192,VALID,0,VALID,21.2616,VALID,341,VALID,0.419922,
2010-08-13, 01:26:04,VALID,916.115,VALID,0,VALID,95.0183,VALID,0,VALID,21.2616,VALID,341,VALID,0.205469,
2010-08-13, 01:27:04,VALID,916.14,VALID,0,VALID,95.1631,VALID,0,VALID,21.2421,VALID,341,VALID,0.283984,
2010-08-13, 01:28:04,VALID,916.102,VALID,0,VALID,95.2622,VALID,0,VALID,21.2616,VALID,341,VALID,0.220313,
2010-08-13, 01:29:04,VALID,916.106,VALID,0,VALID,95.3156,VALID,0,VALID,21.2616,VALID,341,VALID,0.316406,
2010-08-13, 01:30:04,VALID,916.04,VALID,0,VALID,95.2622,VALID,0,VALID,21.2421,VALID,341,VALID,0.284375,
2010-08-13, 01:31:04,VALID,916.03,VALID,0,VALID,95.2241,VALID,0,VALID,21.2421,VALID,341,VALID,0.154687,
2010-08-13, 01:32:04,VALID,916.009,VALID,0,VALID,95.2012,VALID,0,VALID,21.2616,VALID,341,VALID,0,
2010-08-13, 01:33:04,VALID,916.005,VALID,0,VALID,95.1936,VALID,0,VALID,21.2811,VALID,341,VALID,0,
2010-08-13, 01:34:04,VALID,915.975,VALID,0,VALID,95.186,VALID,0,VALID,21.2811,VALID,341,VALID,0.288672,
2010-08-13, 01:35:04,VALID,915.985,VALID,0,VALID,95.2393,VALID,0,VALID,21.3006,VALID,341,VALID,0.436328,
2010-08-13, 01:36:04,VALID,915.929,VALID,0,VALID,95.3003,VALID,0,VALID,21.3006,VALID,341,VALID,0.556641,
2010-08-13, 01:37:04,VALID,915.913,VALID,0,VALID,95.3461,VALID,0,VALID,21.3201,VALID,341,VALID,0.348437,
2010-08-13, 01:38:04,VALID,915.892,VALID,0,VALID,95.3308,VALID,0,VALID,21.3006,VALID,341,VALID,0.159766,
2010-08-13, 01:39:04,VALID,915.877,VALID,0,VALID,95.4071,VALID,0,VALID,21.299,VALID,341,VALID,0,
2010-08-13, 01:40:04,VALID,915.847,VALID,0,VALID,95.4147,VALID,0,VALID,21.3006,VALID,341,VALID,0,
2010-08-13, 01:41:04,VALID,915.847,VALID,0,VALID,95.4528,VALID,0,VALID,21.3006,VALID,341,VALID,0.0902344,
2010-08-13, 01:42:04,VALID,915.793,VALID,0,VALID,95.4757,VALID,0,VALID,21.3006,VALID,341,VALID,0,
2010-08-13, 01:43:04,VALID,915.823,VALID,0,VALID,95.5138,VALID,0,VALID,21.299,VALID,341,VALID,0,
2010-08-13, 01:44:04,VALID,915.773,VALID,0,VALID,95.529,VALID,0,VALID,21.299,VALID,341,VALID,0.0996094,
2010-08-13, 01:45:04,VALID,915.789,VALID,0,VALID,95.5671,VALID,0,VALID,21.299,VALID,341,VALID,0,
2010-08-13, 01:46:04,VALID,915.818,VALID,0,VALID,95.6053,VALID,0,VALID,21.3396,VALID,341,VALID,0.473437,
2010-08-13, 01:47:04,VALID,915.783,VALID,0,VALID,95.6586,VALID,0,VALID,21.3396,VALID,341,VALID,0.676562,
2010-08-13, 01:48:04,VALID,915.776,VALID,0,VALID,95.4833,VALID,0.107441,VALID,21.299,VALID,341,VALID,0.485547,
2010-08-13, 01:49:04,VALID,915.791,VALID,0,VALID,95.5138,VALID,0,VALID,21.2811,VALID,341,VALID,0.272656,
2010-08-13, 01:50:04,VALID,915.792,VALID,0,VALID,95.4833,VALID,0,VALID,21.2811,VALID,341,VALID,0.262891,
2010-08-13, 01:51:04,VALID,915.808,VALID,0,VALID,95.4071,VALID,0,VALID,21.2405,VALID,341,VALID,0.190234,
2010-08-13, 01:52:04,VALID,915.778,VALID,0,VALID,95.3689,VALID,0,VALID,21.2226,VALID,341,VALID,0,
2010-08-13, 01:53:04,VALID,915.765,VALID,0,VALID,95.3308,VALID,0,VALID,21.2226,VALID,341,VALID,0,
2010-08-13, 01:54:04,VALID,915.761,VALID,0,VALID,95.3308,VALID,0,VALID,21.2031,VALID,341,VALID,0.0699219,
2010-08-13, 01:55:04,VALID,915.762,VALID,0,VALID,95.3994,VALID,0.107441,VALID,21.2015,VALID,341,VALID,0.237891,
2010-08-13, 01:56:04,VALID,915.757,VALID,0,VALID,95.5214,VALID,0.107441,VALID,21.1998,VALID,341,VALID,0.333594,
2010-08-13, 01:57:04,VALID,915.733,VALID,0,VALID,95.4147,VALID,0.107441,VALID,21.221,VALID,341,VALID,0.178516,
2010-08-13, 01:58:04,VALID,915.745,VALID,0,VALID,95.3461,VALID,0.107441,VALID,21.221,VALID,341,VALID,0.190234,
2010-08-13, 01:59:04,VALID,915.704,VALID,0,VALID,95.3308,VALID,0.107441,VALID,21.2015,VALID,341,VALID,0.308984,
2010-08-13, 02:00:04,VALID,915.685,VALID,0,VALID,95.3537,VALID,0,VALID,21.2015,VALID,341,VALID,0.389062,
2010-08-13, 02:01:04,VALID,915.682,VALID,0,VALID,95.3842,VALID,0,VALID,21.1819,VALID,341,VALID,0.157031,
2010-08-13, 02:02:04,VALID,915.731,VALID,0,VALID,95.3689,VALID,0.107441,VALID,21.1624,VALID,341,VALID,0.0265625,
2010-08-13, 02:03:04,VALID,915.706,VALID,0,VALID,95.4071,VALID,0.107441,VALID,21.1624,VALID,341,VALID,0.0347656,
2010-08-13, 02:04:04,VALID,915.696,VALID,0,VALID,95.4757,VALID,0.107441,VALID,21.1429,VALID,341,VALID,0,
2010-08-13, 02:05:04,VALID,915.694,VALID,0,VALID,95.4375,VALID,0.107441,VALID,21.1429,VALID,341,VALID,0.328125,
2010-08-13, 02:06:04,VALID,915.721,VALID,0,VALID,95.5138,VALID,0.107441,VALID,21.1234,VALID,341,VALID,0.591797,
2010-08-13, 02:07:04,VALID,915.715,VALID,0,VALID,95.5595,VALID,0.107441,VALID,21.1039,VALID,341,VALID,0.722656,
2010-08-13, 02:08:04,VALID,915.717,VALID,0,VALID,95.6357,VALID,0.107441,VALID,21.1023,VALID,341,VALID,0.872656,
2010-08-13, 02:09:04,VALID,915.732,VALID,0,VALID,95.6815,VALID,0.107441,VALID,21.0844,VALID,341,VALID,0.890625,
2010-08-13, 02:10:04,VALID,915.703,VALID,0,VALID,95.7577,VALID,0,VALID,21.0665,VALID,341,VALID,0.957812,
2010-08-13, 02:11:04,VALID,915.719,VALID,0,VALID,95.8111,VALID,0,VALID,21.047,VALID,341,VALID,0.807422,
2010-08-13, 02:12:04,VALID,915.717,VALID,0,VALID,95.8797,VALID,0,VALID,21.0275,VALID,341,VALID,0.785547,
2010-08-13, 02:13:04,VALID,915.726,VALID,0,VALID,95.9483,VALID,0,VALID,21.008,VALID,341,VALID,0.596484,
2010-08-13, 02:14:04,VALID,915.729,VALID,0,VALID,96.0245,VALID,0,VALID,21.008,VALID,341,VALID,0.558594,
2010-08-13, 02:15:04,VALID,915.719,VALID,0,VALID,96.055,VALID,0,VALID,20.9885,VALID,341,VALID,0.603906,
2010-08-13, 02:16:04,VALID,915.71,VALID,0,VALID,96.1084,VALID,0,VALID,20.9885,VALID,341,VALID,0.448438,
2010-08-13, 02:17:04,VALID,915.71,VALID,0,VALID,96.1465,VALID,0,VALID,20.9885,VALID,341,VALID,0.394531,
2010-08-13, 02:18:04,VALID,915.735,VALID,0,VALID,96.1618,VALID,0,VALID,20.9885,VALID,341,VALID,0.532031,
2010-08-13, 02:19:04,VALID,915.757,VALID,0,VALID,96.2151,VALID,0,VALID,20.9674,VALID,341,VALID,0.437891,
2010-08-13, 02:20:04,VALID,915.759,VALID,0,VALID,96.2609,VALID,0,VALID,20.9885,VALID,341,VALID,0.544141,
2010-08-13, 02:21:04,VALID,915.801,VALID,0,VALID,96.2685,VALID,0,VALID,20.969,VALID,341,VALID,0.451953,
2010-08-13, 02:22:04,VALID,915.808,VALID,0,VALID,96.2914,VALID,0,VALID,20.9885,VALID,341,VALID,0.44375,
2010-08-13, 02:23:04,VALID,915.795,VALID,0,VALID,96.3066,VALID,0,VALID,20.9885,VALID,341,VALID,0.380078,
2010-08-13, 02:24:04,VALID,915.772,VALID,0,VALID,96.3219,VALID,0,VALID,20.969,VALID,341,VALID,0.570703,
2010-08-13, 02:25:04,VALID,915.782,VALID,0,VALID,96.3371,VALID,0,VALID,20.9495,VALID,341,VALID,0.524609,
2010-08-13, 02:26:04,VALID,915.808,VALID,0,VALID,96.3447,VALID,0,VALID,20.9495,VALID,341,VALID,0.338672,
2010-08-13, 02:27:04,VALID,915.797,VALID,0,VALID,96.3447,VALID,0,VALID,20.9495,VALID,341,VALID,0.440234,
2010-08-13, 02:28:04,VALID,915.767,VALID,0,VALID,96.3676,VALID,0,VALID,20.93,VALID,341,VALID,0.555078,
2010-08-13, 02:29:04,VALID,915.745,VALID,0,VALID,96.4057,VALID,0,VALID,20.93,VALID,341,VALID,0.464063,
2010-08-13, 02:30:04,VALID,915.738,VALID,0,VALID,96.4133,VALID,0,VALID,20.9105,VALID,341,VALID,0.640234,
2010-08-13, 02:31:04,VALID,915.731,VALID,0,VALID,96.3905,VALID,0,VALID,20.891,VALID,341,VALID,0.555859,
2010-08-13, 02:32:04,VALID,915.721,VALID,0,VALID,96.4286,VALID,0,VALID,20.9105,VALID,341,VALID,0.346094,
2010-08-13, 02:33:04,VALID,915.712,VALID,0,VALID,96.4438,VALID,0,VALID,20.891,VALID,341,VALID,0.399219,
2010-08-13, 02:34:04,VALID,915.718,VALID,0,VALID,96.4362,VALID,0,VALID,20.8699,VALID,341,VALID,0.234375,
2010-08-13, 02:35:04,VALID,915.737,VALID,0,VALID,96.4591,VALID,0,VALID,20.8925,VALID,341,VALID,0.401953,
2010-08-13, 02:36:04,VALID,915.732,VALID,0,VALID,96.4819,VALID,0,VALID,20.8519,VALID,341,VALID,0.620703,
2010-08-13, 02:37:04,VALID,915.702,VALID,0,VALID,96.4896,VALID,0,VALID,20.8324,VALID,341,VALID,0.482031,
2010-08-13, 02:38:04,VALID,915.699,VALID,0,VALID,96.4896,VALID,0,VALID,20.8519,VALID,341,VALID,0.474219,
2010-08-13, 02:39:04,VALID,915.682,VALID,0,VALID,96.5048,VALID,0,VALID,20.8129,VALID,341,VALID,0.409766,
2010-08-13, 02:40:04,VALID,915.674,VALID,0,VALID,96.5277,VALID,0,VALID,20.7934,VALID,341,VALID,0.348047,
2010-08-13, 02:41:04,VALID,915.637,VALID,0,VALID,96.5353,VALID,0,VALID,20.7934,VALID,341,VALID,0.05625,
2010-08-13, 02:42:04,VALID,915.631,VALID,0,VALID,96.5353,VALID,0,VALID,20.7934,VALID,341,VALID,0.167187,
2010-08-13, 02:43:04,VALID,915.556,VALID,0,VALID,96.5506,VALID,0,VALID,20.7934,VALID,341,VALID,0,
2010-08-13, 02:44:04,VALID,915.534,VALID,0,VALID,96.5429,VALID,0,VALID,20.7739,VALID,341,VALID,0.280078,
2010-08-13, 02:45:04,VALID,915.502,VALID,0,VALID,96.5582,VALID,0,VALID,20.7544,VALID,341,VALID,0.599609,
2010-08-13, 02:46:04,VALID,915.488,VALID,0,VALID,96.5429,VALID,0,VALID,20.7154,VALID,341,VALID,0.804688,
2010-08-13, 02:47:04,VALID,915.457,VALID,0,VALID,96.5582,VALID,0,VALID,20.7154,VALID,341,VALID,0.695313,
2010-08-13, 02:48:04,VALID,915.437,VALID,0,VALID,96.5506,VALID,0,VALID,20.6764,VALID,341,VALID,0.464063,
2010-08-13, 02:49:04,VALID,915.397,VALID,0,VALID,96.5734,VALID,0,VALID,20.6569,VALID,341,VALID,0.513281,
2010-08-13, 02:50:04,VALID,915.388,VALID,0,VALID,96.5582,VALID,0,VALID,20.6163,VALID,341,VALID,0.519141,
2010-08-13, 02:51:04,VALID,915.372,VALID,0,VALID,96.6192,VALID,0,VALID,20.6374,VALID,341,VALID,0.430078,
2010-08-13, 02:52:04,VALID,915.367,VALID,0,VALID,96.5887,VALID,0,VALID,20.6179,VALID,341,VALID,0.417578,
2010-08-13, 02:53:04,VALID,915.366,VALID,0,VALID,96.642,VALID,0,VALID,20.6179,VALID,341,VALID,0.194531,
2010-08-13, 02:54:04,VALID,915.37,VALID,0,VALID,96.6649,VALID,0,VALID,20.6179,VALID,341,VALID,0.114453,
2010-08-13, 02:55:04,VALID,915.366,VALID,0,VALID,96.6573,VALID,0,VALID,20.5984,VALID,341,VALID,0,
2010-08-13, 02:56:04,VALID,915.369,VALID,0,VALID,96.6573,VALID,0,VALID,20.5789,VALID,341,VALID,0,
2010-08-13, 02:57:04,VALID,915.381,VALID,0,VALID,96.6878,VALID,0,VALID,20.5789,VALID,341,VALID,0,
2010-08-13, 02:58:04,VALID,915.409,VALID,0,VALID,96.6802,VALID,0,VALID,20.5399,VALID,341,VALID,0.365625,
2010-08-13, 02:59:04,VALID,915.401,VALID,0,VALID,96.6573,VALID,0,VALID,20.5204,VALID,341,VALID,0.468359,
2010-08-13, 03:00:04,VALID,915.403,VALID,0,VALID,96.6649,VALID,0,VALID,20.5024,VALID,341,VALID,0.580859,
2010-08-13, 03:01:04,VALID,915.395,VALID,0,VALID,96.7183,VALID,0,VALID,20.4813,VALID,341,VALID,0.554297,
2010-08-13, 03:02:04,VALID,915.402,VALID,0,VALID,96.6878,VALID,0,VALID,20.4423,VALID,341,VALID,0.295703,
2010-08-13, 03:03:04,VALID,915.361,VALID,0,VALID,96.7259,VALID,0,VALID,20.4423,VALID,341,VALID,0.126563,
2010-08-13, 03:04:04,VALID,915.376,VALID,0,VALID,96.7259,VALID,0,VALID,20.4423,VALID,341,VALID,0,
2010-08-13, 03:05:04,VALID,915.379,VALID,0,VALID,96.7183,VALID,0,VALID,20.4033,VALID,341,VALID,0.183984,
2010-08-13, 03:06:04,VALID,915.349,VALID,0,VALID,96.7259,VALID,0,VALID,20.4033,VALID,341,VALID,0.332031,
2010-08-13, 03:07:04,VALID,915.341,VALID,0,VALID,96.7411,VALID,0,VALID,20.4244,VALID,341,VALID,0.546484,
2010-08-13, 03:08:04,VALID,915.298,VALID,0,VALID,96.703,VALID,0,VALID,20.3643,VALID,341,VALID,0.491406,
2010-08-13, 03:09:04,VALID,915.286,VALID,0,VALID,96.703,VALID,0,VALID,20.3448,VALID,341,VALID,0.396484,
2010-08-13, 03:10:04,VALID,915.292,VALID,0,VALID,96.7107,VALID,0.107441,VALID,20.3253,VALID,341,VALID,0.316016,
2010-08-13, 03:11:04,VALID,915.274,VALID,0,VALID,96.7107,VALID,0,VALID,20.3253,VALID,341,VALID,0.385156,
2010-08-13, 03:12:04,VALID,915.237,VALID,0,VALID,96.7259,VALID,0,VALID,20.3253,VALID,341,VALID,0.445313,
2010-08-13, 03:13:04,VALID,915.252,VALID,0,VALID,96.764,VALID,0,VALID,20.3448,VALID,341,VALID,0.4,
2010-08-13, 03:14:04,VALID,915.272,VALID,0,VALID,96.7869,VALID,0,VALID,20.3433,VALID,341,VALID,0.420703,
2010-08-13, 03:15:04,VALID,915.293,VALID,0,VALID,96.7259,VALID,0.107441,VALID,20.3238,VALID,341,VALID,0.607813,
2010-08-13, 03:16:04,VALID,915.296,VALID,0,VALID,96.6649,VALID,0.107441,VALID,20.2848,VALID,341,VALID,0.564062,
2010-08-13, 03:17:04,VALID,915.308,VALID,0,VALID,96.7107,VALID,0.107441,VALID,20.2653,VALID,341,VALID,0.775,
2010-08-13, 03:18:04,VALID,915.287,VALID,0,VALID,96.7335,VALID,0,VALID,20.2668,VALID,341,VALID,0.791406,
2010-08-13, 03:19:04,VALID,915.304,VALID,0,VALID,96.7945,VALID,0,VALID,20.2458,VALID,341,VALID,0.782812,
2010-08-13, 03:20:04,VALID,915.272,VALID,0,VALID,96.7945,VALID,0.107441,VALID,20.2653,VALID,341,VALID,0.539844,
2010-08-13, 03:21:04,VALID,915.227,VALID,0,VALID,96.5582,VALID,0,VALID,20.1678,VALID,341,VALID,0.741797,
2010-08-13, 03:22:04,VALID,915.227,VALID,0,VALID,96.6725,VALID,0,VALID,20.1303,VALID,341,VALID,0.352734,
2010-08-13, 03:23:04,VALID,915.204,VALID,0,VALID,96.764,VALID,0,VALID,20.1288,VALID,341,VALID,0.364844,
2010-08-13, 03:24:04,VALID,915.207,VALID,0,VALID,96.8021,VALID,0.107441,VALID,20.1483,VALID,341,VALID,0.526172,
2010-08-13, 03:25:04,VALID,915.208,VALID,0,VALID,96.7869,VALID,0,VALID,20.1108,VALID,341,VALID,0.215625,
2010-08-13, 03:26:04,VALID,915.18,VALID,0,VALID,96.8098,VALID,0,VALID,20.1318,VALID,341,VALID,0.334375,
2010-08-13, 03:27:04,VALID,915.189,VALID,0,VALID,96.8098,VALID,0,VALID,20.1318,VALID,341,VALID,0.351563,
2010-08-13, 03:28:04,VALID,915.155,VALID,0,VALID,96.7869,VALID,0,VALID,20.0928,VALID,341,VALID,0.5,
2010-08-13, 03:29:04,VALID,915.152,VALID,0,VALID,96.7716,VALID,0,VALID,20.0733,VALID,341,VALID,0.645312,
2010-08-13, 03:30:04,VALID,915.175,VALID,0,VALID,96.7869,VALID,0,VALID,20.0523,VALID,341,VALID,0.425391,
2010-08-13, 03:31:04,VALID,915.145,VALID,0,VALID,96.8021,VALID,0,VALID,20.0733,VALID,341,VALID,0.214453,
2010-08-13, 03:32:04,VALID,915.181,VALID,0,VALID,96.7793,VALID,0,VALID,20.0148,VALID,341,VALID,0.577344,
2010-08-13, 03:33:04,VALID,915.163,VALID,0,VALID,96.7945,VALID,0,VALID,20.0148,VALID,103,VALID,0.614453,
2010-08-13, 03:34:04,VALID,915.163,VALID,0,VALID,96.8021,VALID,0,VALID,19.9938,VALID,103,VALID,0.486719,
2010-08-13, 03:35:04,VALID,915.206,VALID,0,VALID,96.8479,VALID,0,VALID,20.0343,VALID,103,VALID,0.7125,
2010-08-13, 03:36:04,VALID,915.177,VALID,0,VALID,96.886,VALID,0,VALID,20.0733,VALID,103,VALID,0.7875,
2010-08-13, 03:37:04,VALID,915.186,VALID,0,VALID,96.9012,VALID,0,VALID,20.0718,VALID,103,VALID,0.933203,
2010-08-13, 03:38:04,VALID,915.172,VALID,0,VALID,96.8555,VALID,0,VALID,20.0733,VALID,103,VALID,0.805469,
2010-08-13, 03:39:04,VALID,915.205,VALID,0,VALID,96.8936,VALID,0,VALID,20.0928,VALID,103,VALID,0.960156,
2010-08-13, 03:40:04,VALID,915.204,VALID,0,VALID,96.825,VALID,0,VALID,20.0343,VALID,103,VALID,0.790234,
2010-08-13, 03:41:04,VALID,915.193,VALID,0,VALID,96.7716,VALID,0,VALID,20.0148,VALID,103,VALID,0.747656,
2010-08-13, 03:42:04,VALID,915.205,VALID,0,VALID,96.764,VALID,0,VALID,19.9563,VALID,103,VALID,0.550781,
2010-08-13, 03:43:04,VALID,915.206,VALID,0,VALID,96.764,VALID,0,VALID,19.9368,VALID,103,VALID,1.03398,
2010-08-13, 03:44:04,VALID,915.16,VALID,0,VALID,96.7716,VALID,0,VALID,19.9173,VALID,103,VALID,0.788281,